Teesside, United Kingdom

9:41 AM BST on August 19, 2017 (GMT +0100)
Teesside

Weather History for EGNV - May, 2013

Change the Weather History Date:

Sunday, May 19, 2013

  Actual Average Record
Temperature  
Mean Temperature 56 °F -  
Max Temperature 62 °F 61 °F 73 °F (2014)
Min Temperature 50 °F 46 °F 32 °F (2008)
Degree Days  
Heating Degree Days 9    
Growing Degree Days 6 (Base 50)    
Moisture  
Dew Point 50 °F    
Average Humidity 84    
Maximum Humidity 94    
Minimum Humidity 63    
Precipitation  
Precipitation 0.00 in - - ()
Sea Level Pressure  
Sea Level Pressure 29.91 in    
Wind  
Wind Speed 4 mph ()    
Max Wind Speed 14 mph    
Max Gust Speed -    
Visibility 2.8 miles    
Events      
Averages and records for this station are not official NWS values.
T = Trace of Precipitation, MM = Missing Value Source: Averaged Metar Reports

Daily Weather History Graph

Daily Weather History Graph

Search for Another Location

Airport or City:

Trip Planner

Search our weather history database for the weather conditions in past years. The results will help you decide how hot, cold, wet, or windy it might be!

Date:

Astronomy

May. 19, 2013 Rise Set
Actual Time 4:53 AM BST 9:11 PM BST
Civil Twilight 4:05 AM BST 10:00 PM BST
Nautical Twilight 2:53 AM BST 11:13 PM BST
Astronomical Twilight 1:34 AM BST 12:29 AM BST
Moon 2:03 PM BST 2:11 AM BST
Length of Visible Light 17h 54m
Length of Day
16h 17m
Waxing Gibbous, 63% of the Moon is Illuminated
May 19
Waxing Gibbous
May 25
Full
May 31
Last Quarter
Jun 8
New
Jun 16
First Quarter

Hourly Weather History & Observations

Time (BST) Temp. Dew Point Humidity Pressure Visibility Wind Dir Wind Speed Gust Speed Precip Events Conditions
5:20 AM 50.0 °F 48.2 °F 94% 29.83 in 1.2 mi Calm Calm - N/A   Mostly Cloudy
5:50 AM 50.0 °F 48.2 °F 94% 29.86 in 1.2 mi Calm Calm - N/A   Mostly Cloudy
6:20 AM 50.0 °F 48.2 °F 94% 29.86 in 1.1 mi Calm Calm - N/A   Mostly Cloudy
6:50 AM 50.0 °F 48.2 °F 94% 29.86 in 1.1 mi Calm Calm - N/A   Mist
7:20 AM 51.8 °F 50.0 °F 94% 29.89 in 1.2 mi Variable 2.3 mph - N/A   Overcast
7:50 AM 51.8 °F 50.0 °F 94% 29.89 in 1.2 mi Variable 1.2 mph - N/A   Haze
8:20 AM 51.8 °F 50.0 °F 94% 29.89 in 1.6 mi Variable 3.5 mph - N/A   Haze
8:50 AM 51.8 °F 50.0 °F 94% 29.92 in 1.9 mi NE 4.6 mph - N/A   Haze
9:20 AM 53.6 °F 50.0 °F 88% 29.92 in 1.9 mi Variable 3.5 mph - N/A   Haze
9:50 AM 53.6 °F 50.0 °F 88% 29.92 in 1.9 mi Variable 2.3 mph - N/A   Haze
10:20 AM 55.4 °F 50.0 °F 82% 29.92 in 2.2 mi Variable 2.3 mph - N/A   Haze
10:50 AM 55.4 °F 50.0 °F 82% 29.92 in 2.5 mi Variable 1.2 mph - N/A   Haze
11:20 AM 57.2 °F 50.0 °F 77% 29.92 in 2.8 mi Variable 1.2 mph - N/A   Haze
11:50 AM 57.2 °F 50.0 °F 77% 29.92 in 3.1 mi Variable 3.5 mph - N/A   Haze
12:20 PM 57.2 °F 50.0 °F 77% 29.92 in 3.1 mi Variable 3.5 mph - N/A   Haze
12:50 PM 59.0 °F 51.8 °F 77% 29.92 in 3.1 mi Variable 4.6 mph - N/A   Haze
1:20 PM 60.8 °F 50.0 °F 68% 29.92 in 4.3 mi North 5.8 mph - N/A   Scattered Clouds
1:50 PM 62.6 °F 50.0 °F 63% 29.92 in 4.3 mi NE 8.1 mph - N/A   Scattered Clouds
2:20 PM 60.8 °F 51.8 °F 72% 29.92 in 4.3 mi NE 11.5 mph - N/A   Scattered Clouds
2:50 PM 60.8 °F 53.6 °F 77% 29.92 in 4.3 mi ENE 9.2 mph - N/A   Scattered Clouds
3:20 PM 60.8 °F 53.6 °F 77% 29.92 in 4.3 mi NE 9.2 mph - N/A   Scattered Clouds
3:50 PM 60.8 °F 53.6 °F 77% 29.92 in 4.3 mi NE 10.4 mph - N/A   Scattered Clouds
4:20 PM 60.8 °F 53.6 °F 77% 29.92 in 4.3 mi ENE 6.9 mph - N/A   Scattered Clouds
4:50 PM 60.8 °F 53.6 °F 77% 29.92 in 4.3 mi ENE 8.1 mph - N/A   Partly Cloudy
5:20 PM 60.8 °F 53.6 °F 77% 29.92 in 4.3 mi ENE 12.7 mph - N/A   Partly Cloudy
5:50 PM 57.2 °F 51.8 °F 82% 29.92 in 3.7 mi ENE 13.8 mph - N/A   Partly Cloudy
6:20 PM 55.4 °F 51.8 °F 88% 29.92 in 1.9 mi ENE 13.8 mph - N/A   Haze
6:50 PM 55.4 °F 50.0 °F 82% 29.92 in 2.2 mi NE 13.8 mph - N/A   Haze
7:20 PM 51.8 °F 50.0 °F 94% 29.95 in 1.9 mi NE 13.8 mph - N/A   Haze
7:50 PM 51.8 °F 48.2 °F 88% 29.95 in 3.1 mi NE 11.5 mph - N/A   Haze
8:20 PM 51.8 °F 48.2 °F 88% 29.92 in 3.7 mi NE 6.9 mph - N/A   Partly Cloudy
8:50 PM 51.8 °F 48.2 °F 88% 29.95 in 3.7 mi ENE 5.8 mph - N/A   Mostly Cloudy
9:20 PM 51.8 °F 48.2 °F 88% 29.95 in 3.1 mi ENE 3.5 mph - N/A   Haze
9:50 PM 51.8 °F 48.2 °F 88% 29.95 in 2.5 mi East 5.8 mph - N/A   Haze